Back to catalog

HULIANWANG DIGUI-76

AliveCommunicationsLEO
NORAD 65308·PAYLOAD·🇨🇳 China

Launched Aug 25, 2025 from Wenchang Space Launch Site

Loading…

Next Passes (next 24 hours)

TLE

FreshSource: Space-Track

Epoch: Sep 14, 2026, 22:14 UTC

1 65308U 25187D   26257.92691057 -.00000096  00000-0  60268-4 0  9998
2 65308  49.9996 244.1301 0000706 330.3016  29.7816 13.29326535 51631

Track HULIANWANG DIGUI-76 in real time with AllMySat

Download on the App Store